Tracking 20083 objects as of 12-Dec-2019
HD Live streaming from Space Station
objects crossing your sky now

SL-12 DEB

Track SL-12 DEB now!
10-day predictions


NORAD ID: 43607
Int'l Code: 2010-007AJ
Perigee: 268.4 km
Apogee: 17,276.8 km
Inclination: 65.3 °
Period: 309.1 minutes
Semi major axis: 15143 km
RCS: Unknown
Launch date: March 1, 2010
Source: Commonwealth of Independent States (former USSR) (CIS)
Launch site: TYURATAM MISSILE AND SPACE COMPLEX (TTMTR)

Note: This is SATELLITE DEBRIS
aabbcc
Your satellite tracking list
Your tracking list is empty




NASA's NSSDC Master Catalog

Two Line Element Set (TLE):
1 43607U 10007AJ  19343.93966912  .00052518  00000-0  57062-2 0  9996
2 43607  65.2921 303.7142 5615685   6.3805 358.4656  4.65863648 24569
Source of the keplerian elements: AFSPC